This demonstration page uses our WeatherBlox Daily Observations layout. Learn more.

Left ArrowRight Arrow

39.08367, -84.50855

Hourly Observations for March 7, 2015

Temp ( °F °C ) Dew Point ( °F °C ) Humidity (%) Winds ( mph kmh ) Pressure ( in mb ) Visibility ( mi km ) Precip ( " mm )
12:53 am 00:53 Clear 19 -7.2 13 -10.6 77 77 SSW 5 7 30.4 1029 10 16.0934 N/A
1:53 am 01:53 Clear 19 -7.2 12 -11.1 74 74 SW 6 9 30.38 1029 10 16.0934 N/A
2:53 am 02:53 Clear 19 -7.2 14 -10 81 81 N N/A 30.36 1028 10 16.0934 N/A
3:53 am 03:53 Clear 19 -7.2 13 -10.6 77 77 SSW 5 7 30.34 1027 10 16.0934 N/A
4:53 am 04:53 Clear 19 -7.2 12 -11.1 74 74 SSW 5 7 30.34 1027 10 16.0934 N/A
5:53 am 05:53 Clear 20 -6.7 12 -11.1 71 71 N N/A 30.34 1027 10 16.0934 N/A
6:53 am 06:53 Clear 20 -6.7 13 -10.6 74 74 N N/A 30.34 1027 10 16.0934 N/A
7:53 am 07:53 Sunny 24 -4.4 14 -10 65 65 SSW 8 13 30.32 1027 10 16.0934 N/A
8:53 am 08:53 Sunny 28 -2.2 16 -8.9 60 60 SSW 10 17 30.32 1027 10 16.0934 N/A
9:53 am 09:53 Sunny 31 -0.6 18 -7.8 59 59 SSW 10 17 30.31 1027 10 16.0934 N/A
10:53 am 10:53 Partly Cloudy 34 1.1 20 -6.7 56 56 SSW 12 19 30.3 1026 10 16.0934 N/A
11:53 am 11:53 Mostly Sunny 37 2.8 22 -5.6 54 54 SSW 13 20 30.27 1025 10 16.0934 N/A
12:53 pm 12:53 Mostly Sunny 39 3.9 24 -4.4 55 55 SSW 14 22 30.25 1024 10 16.0934 N/A
1:53 pm 13:53 Sunny 43 6 27 -3 53 53 SW 18 30 30.18 1022 10 16.0934 N/A
2:53 pm 14:53 Sunny 44 6.7 28 -2.2 53 53 S 18 30 30.15 1021 10 16.0934 N/A
3:53 pm 15:53 Sunny 46 7.8 27 -2.8 47 47 SW 21 33 30.14 1021 10 16.0934 N/A
4:53 pm 16:53 Sunny 46 7.8 28 -2.2 50 50 SW 21 33 30.14 1021 10 16.0934 N/A
5:53 pm 17:53 Sunny 44 6.7 28 -2.2 53 53 SW 15 24 30.15 1021 10 16.0934 N/A
6:53 pm 18:53 Clear 40 4.4 28 -2.2 63 63 SSW 10 17 30.16 1021 10 16.0934 N/A
7:53 pm 19:53 Clear 40 4.4 28 -2.2 63 63 SSW 13 20 30.17 1022 10 16.0934 N/A
8:53 pm 20:53 Clear 39 3.9 27 -2.8 62 62 SW 9 15 30.19 1022 10 16.0934 N/A
9:53 pm 21:53 Clear 36 2.2 27 -2.8 70 70 SSW 8 13 30.2 1023 10 16.0934 N/A
10:53 pm 22:53 Clear 36 2.2 27 -2.8 70 70 SW 9 15 30.21 1023 10 16.0934 N/A
11:53 pm 23:53 Clear 35 1.7 26 -3.3 70 70 SW 7 11 30.21 1023 10 16.0934 N/A

Powered by AerisWeather